[[{"header":{"parameterUnit":"m.s-1","parameterCategory":1,"la1":30.2992,"la2":30.254,"lo1":-89.0895,"lo2":-89.0443,"dy":0.0025,"dx":0.0025,"nx":19,"ny":19,"refTime":"2026-05-17T21:00:00:Z","depth":0,"parameterNumber":2,"parameterNumberName":"U-component_of_WINDS"},"data":[0,0,0,-4.5716,-4.5719,-4.5845,-4.5846,-4.6021,-4.6023,0,0,0,0,0,0,0,0,0,0,0,-4.5687,-4.5689,-4.5716,-4.5719,-4.5845,-4.5846,-4.6021,-4.6023,0,0,0,0,0,0,0,0,0,0,0,-4.5686,-4.5688,-4.569,-4.572,-4.5845,-4.5846,-4.6021,-4.592,0,0,0,0,0,0,0,0,0,0,-4.5795,-4.5777,-4.5688,-4.569,-4.572,-4.5845,-4.5846,-4.5915,-4.5927,-4.597,0,-4.6011,0,-4.602,-4.6036,-4.6036,0,0,0,-4.5713,-4.5768,-4.5794,-4.569,-4.5722,-4.5845,-4.5787,-4.5921,-4.5934,-4.5985,-4.6014,-4.602,-4.6023,-4.6037,-4.6038,-4.6311,-4.6313,0,0,-4.5706,-4.5714,-4.5785,-4.5803,-4.5784,-4.5783,-4.5791,-4.5929,-4.596,-4.6014,-4.6024,-4.6026,-4.6038,-4.604,-4.631,-4.6312,0,0,0,-4.569,-4.571,-4.5732,-4.5796,-4.5818,-4.5786,-4.5796,-4.5954,-4.5961,-4.6026,-4.6028,-4.6039,-4.6042,-4.6308,-4.631,-4.6396,0,0,0,-4.5685,-4.5701,-4.573,-4.5736,-4.5815,-4.5888,-4.5818,-4.5951,-4.5967,-4.6027,-4.6039,-4.6043,-4.6306,-4.6309,-4.639,-4.6434,0,0,0,-4.5676,-4.5699,-4.5721,-4.5737,-4.5791,-4.5885,-4.59,-4.5954,-4.5969,-4.6037,-4.6044,-4.6305,-4.6309,-4.6384,-4.6425,-4.6507,0,0,0,-4.5668,-4.5795,-4.5722,-4.5866,-4.579,-4.5938,-4.5898,-4.6008,-4.6077,-4.604,-4.6306,-4.631,-4.6383,-4.642,-4.6502,-4.6577,-4.661,0,0,-4.5833,-4.5816,-4.5899,-4.5837,-4.6,-4.5918,-4.6093,-4.6147,-4.6146,-4.6256,-4.6263,-4.6392,-4.6425,-4.6506,-4.6793,-4.6819,0,0,0,-4.5955,-4.6014,-4.6056,-4.6121,-4.6167,-4.6208,-4.6235,-4.6256,-4.6349,-4.6205,-4.6444,-4.6464,-4.6511,-4.6547,-4.6569,-4.6608,-4.6327,-4.6327,-4.6327,-4.62,-4.6191,-4.6329,-4.6336,-4.64,-4.6427,-4.6478,-4.651,-4.6483,-4.654,-4.6572,-4.6747,-4.6789,-4.6805,-4.6847,-4.6613,-4.6613,-4.6613,-4.6614,-4.6439,-4.6522,-4.6484,-4.6603,-4.6594,-4.6694,-4.6725,-4.6703,-4.6794,-4.6722,-4.6764,-4.6684,-4.6834,-4.687,-4.662,-4.6619,-4.6618,-4.6617,-4.6617,-4.6597,-4.6635,-4.6658,-4.6752,-4.6826,-4.683,-4.6919,-4.6908,-4.6898,-4.6939,-4.6971,-4.6969,-4.6965,-4.6956,-4.6956,-4.6957,-4.6957,-4.6958,-4.6958,-4.6751,-4.6774,-4.6851,-4.691,-4.6951,-4.7003,-4.7032,-4.7072,-4.7113,-4.7097,-4.7098,-4.7064,-4.6851,-4.6797,-4.6968,-4.6966,-4.6965,-4.6964,-4.6963,-4.6993,-4.6937,-4.7055,-4.7096,-4.7165,-4.7238,-4.7223,-4.7305,-4.7337,-4.7381,-4.734,-4.7185,-4.7166,-4.7148,-4.7103,-4.7342,-4.7342,-4.7342,-4.7342,-4.7125,-4.7114,-4.7233,-4.7299,-4.7362,-4.7361,-4.7495,-4.752,-4.7536,-4.7555,-4.7519,-4.7459,-4.7442,-4.7432,-4.7408,-4.7366,-4.7667,-4.7667,-4.7668,-4.7272,-4.7268,-4.7384,-4.7399,-4.7452,-4.7498,-4.7623,-4.77,-4.7707,-4.7681,-4.7569,-4.7555,-4.7458,-4.7427,-4.7395,-4.7358,-4.728,0,0]},{"header":{"parameterUnit":"m.s-1","parameterCategory":1,"la1":30.2992,"la2":30.254,"lo1":-89.0895,"lo2":-89.0443,"dy":0.0025,"dx":0.0025,"nx":19,"ny":19,"refTime":"2026-05-17T21:00:00:Z","depth":0,"parameterNumber":3,"parameterNumberName":"V-component_of_WINDS"},"data":[0,0,0,2.7656,2.7656,2.7644,2.7644,2.764,2.764,0,0,0,0,0,0,0,0,0,0,0,2.7666,2.7666,2.7656,2.7656,2.7644,2.7644,2.764,2.764,0,0,0,0,0,0,0,0,0,0,0,2.7666,2.7666,2.7666,2.7656,2.7645,2.7644,2.764,2.7645,0,0,0,0,0,0,0,0,0,0,2.7654,2.7669,2.7666,2.7666,2.7656,2.7645,2.7644,2.7645,2.7645,2.765,0,2.7656,0,2.7648,2.764,2.764,0,0,0,2.7651,2.767,2.7661,2.7666,2.7656,2.7645,2.7648,2.7645,2.7644,2.7649,2.7656,2.7655,2.7648,2.764,2.764,2.7686,2.7687,0,0,2.7652,2.7667,2.7661,2.7661,2.7664,2.7649,2.7648,2.7644,2.7652,2.7656,2.7655,2.7648,2.764,2.764,2.7686,2.7687,0,0,0,2.7657,2.7668,2.7659,2.7662,2.7659,2.7649,2.7648,2.7652,2.7648,2.7655,2.7648,2.764,2.7641,2.7685,2.7686,2.7723,0,0,0,2.7657,2.7671,2.7659,2.7669,2.7659,2.7655,2.7656,2.7648,2.7648,2.7648,2.764,2.7641,2.7685,2.7686,2.7721,2.7738,0,0,0,2.7664,2.7671,2.7672,2.7669,2.7665,2.7655,2.7651,2.7648,2.7644,2.764,2.7641,2.7685,2.7686,2.7719,2.7735,2.7754,0,0,0,2.7677,2.7704,2.7673,2.7701,2.7665,2.7678,2.765,2.7659,2.7661,2.764,2.7685,2.7686,2.7718,2.7733,2.7753,2.7774,2.7784,0,0,2.772,2.771,2.7726,2.7697,2.772,2.7679,2.7707,2.7693,2.7679,2.7685,2.7686,2.7722,2.7734,2.7754,2.7837,2.7846,0,0,0,2.7745,2.7756,2.7759,2.7761,2.7752,2.7746,2.7727,2.7723,2.7727,2.7685,2.7734,2.7741,2.7752,2.7761,2.7768,2.7777,2.7691,2.7691,2.7691,2.7828,2.7809,2.7833,2.7813,2.7816,2.7796,2.7797,2.7787,2.7766,2.7778,2.778,2.7833,2.7844,2.785,2.7859,2.779,2.779,2.779,2.779,2.789,2.7903,2.7876,2.7889,2.7869,2.788,2.7863,2.7848,2.7856,2.783,2.7838,2.7811,2.7859,2.7866,2.7792,2.7792,2.7792,2.7791,2.7791,2.7942,2.7945,2.7939,2.7942,2.7946,2.7924,2.7933,2.7914,2.7896,2.7904,2.7904,2.7903,2.79,2.7906,2.7906,2.7906,2.7906,2.7906,2.7907,2.7999,2.7991,2.8001,2.7995,2.7994,2.7991,2.7973,2.7972,2.7966,2.7951,2.7951,2.7929,2.7868,2.7853,2.7909,2.7909,2.7908,2.7908,2.7908,2.8068,2.805,2.8065,2.8065,2.8056,2.8062,2.8038,2.8038,2.8034,2.8039,2.8016,2.7973,2.7962,2.7956,2.7943,2.802,2.802,2.802,2.802,2.8113,2.8105,2.8117,2.8118,2.8116,2.8096,2.8115,2.8101,2.8084,2.8081,2.8067,2.8049,2.8044,2.8035,2.8027,2.8015,2.8109,2.8109,2.8109,2.8155,2.8146,2.8165,2.8149,2.8141,2.8134,2.8151,2.8154,2.813,2.8112,2.8078,2.8074,2.8044,2.8036,2.8016,2.8005,2.7982,0,0]}]]